Location: Proctor
(47.8934°N, 114.3048°W)
Time: 16:37:03
(UTC+00:00)

Transit 4A - Pass Details

Date: 16 May 2025
Orbit: 866 x 975 km, 66.8° (Epoch: 13 June)

Event Time Altitude Azimuth Distance (km) Brightness Sun altitude
Rises 07:30:22 0° 308° (NW) 3,640 11.5 -22.9°
Reaches altitude 10° 07:34:42 10° 336° (NNW) 2,671 11.2 -22.9°
Maximum altitude 07:37:25 13° 2° (N) 2,446 11.1 -22.9°
Drops below altitude 10° 07:40:06 10° 28° (NNE) 2,637 11.1 -22.9°
Sets 07:44:18 0° 56° (NE) 3,551 11.5 -22.9°
